Starlink 34599

operational
NORAD ID: 64919 Int'l Des: 2025-157 Owner: SPXS Country: US Constellation: starlink
LEOCIRCULAR

Starlink 34599について

説明を読み込み中...

リアルタイム位置

3D地球を読み込み中...

次回通過

高度履歴

Altitude vs Time

uPlot chart will show altitude changes over time

軌道要素

1 64919U 25157R 25342.46699662 .00071375 00000-0 17805-2 0 9999
2 64919 53.1581 53.1842 0001147 66.5841 293.5284 15.39572240 22106
Epoch: Dec 8, 2025 • Age: 16 hours

現在のステータス

高度 450.7 km
速度 7.64 km/s
衛星直下点 -11.84°S, 106.36°E
打ち上げ日 Jul 26, 2025
運用期間 0.3 years
タイプ internet

技術仕様

分類 Payload
質量 575.00 kg
乾燥質量 530.00 kg
総質量 575.00 kg
長さ 0.30 m
直径 4.10 m
スパン 29.00 m
形状 Box + pan
製造者 SPXS
バスタイプ Starlink V2MO
フェーズステータス In Orbit
所有者/国 SPXS/US

大規模コンステレーション

Loading constellations...